Regional Weather Roundup
Issued by NWS Sioux Falls, SD

Home | Current Version | Previous Version | Graphics & Text | Print | Product List | Glossary Off
Versions: 1 2 3 4 5 6 7 8 9 10 11 12 13 14 15 16 17 18 19 20 21 22 23 24 25 26 27 28 29 30 31 32 33 34 35 36 37 38 39 40 41 42 43 44 45 46 47 48 49 50

000
ASUS43 KFSD 030502
RWRFSD

WEATHER ROUNDUP FOR SE SOUTH DAKOTA/SW MINNESOTA/NW IOWA
NATIONAL WEATHER SERVICE SIOUX FALLS SD
1200 AM CDT MON AUG 03 2015

NOTE: "FAIR" INDICATES FEW OR NO CLOUDS BELOW 12,000 FEET WITH NO
SIGNIFICANT WEATHER AND OR OBSTRUCTIONS TO VISIBILITY.


SDZ038>040-050-052>070-030600-
SOUTHEAST SOUTH DAKOTA

CITY           SKY/WX    TMP DP  RH WIND       PRES   REMARKS
BROOKINGS      CLEAR     63  55  77 CALM      29.95S
CHAMBERLAIN    CLEAR     69  57  65 NE5       29.96R
HURON          CLEAR     62  59  90 W3        29.93R
MADISON        FAIR      63  63 100 NW3       29.95R
MITCHELL       CLEAR     65  59  81 CALM      29.94R
SIOUX FALLS    CLEAR     65  58  78 CALM      29.93R
WINNER         FAIR      69  59  70 SE5       29.97R
YANKTON        CLEAR     68  59  73 N7        29.93R
$$

MNZ071-072-080-081-089-090-097-098-030600-
SOUTHWEST MINNESOTA

CITY           SKY/WX    TMP DP  RH WIND       PRES   REMARKS
FAIRMONT       CLEAR     63  54  72 NW7       29.90R
JACKSON        CLEAR     63  57  82 NW7       29.92R
LUVERNE        CLEAR     64  59  82 CALM      29.93R
MARSHALL       CLEAR     61  54  77 NW6       29.93R
MONTEVIDEO     CLEAR     61  50  67 N6        29.92S
PIPESTONE      CLEAR     64  57  77 CALM      29.94R
REDWOOD FALLS  CLEAR     67  55  65 NW9       29.89R
TRACY          CLEAR     64  57  77 NW6       29.92S
WINDOM         CLEAR     63  57  82 CALM      29.91R
WORTHINGTON    CLEAR     61  54  77 NW5       29.93R
$$

IAZ001>003-012>014-020>022-031-032-NEZ013-014-SDZ071-030600-
NORTHWEST IOWA

CITY           SKY/WX    TMP DP  RH WIND       PRES   REMARKS
DENISON        PTCLDY    72  68  88 NE8       29.89R
ESTHERVILLE    CLEAR     60  57  89 NW7       29.90R
LE MARS        CLEAR     66  63  88 N5        29.92R
ORANGE CITY    CLEAR     66  61  82 NE3       29.92S
SHELDON        CLEAR     61  59  94 CALM      29.91R
SIOUX CITY     NOT AVBL
SPENCER        CLEAR     62  57  83 NW3       29.91S
STORM LAKE     CLEAR     66  61  82 N7        29.92R
$$

ABBREVIATIONS USED IN REMARKS
   TC - TEMPERATURE IN CELSIUS
  WCI - WIND CHILL INDEX
   HX - HEAT INDEX
  VSB - VISIBILITY




USA.gov is the U.S. government's official web portal to all federal, state and local government web resources and services.